sat.trackr.live / text

‹ back to catalog

STARLINK-32731

NORAD 62493 · 2025-003G

PAYLOAD ACTIVE UNKNOWN

§ Identity

Operator
Country
US
Launch date
2025-01-06
Launch site
AFETR
Launch vehicle
Mass (kg)
RCS (m²)

Purposes: comms

External: N2YO · Heavens-Above · Gunter

§ Orbital elements

Epoch: 2026-09-21T16:40:06.998016Z

Period
94.27 min
Inclination
42.9993°
Eccentricity
0.0001253
Mean motion
15.27584600 rev/d
Perigee alt
482.2 km
Apogee alt
483.9 km
Semi-major
6,861.2 km
B*
3.5890e-4
RAAN
262.4092°
Arg perigee
277.0630°
Mean anomaly
83.0080°
Rev number
9,664

§ Raw data

STARLINK-327311 62493U 25003G   26264.69452544  .00009628  00000+0  35890-3 0  99952 62493  42.9993 262.4092 0001253 277.0630  83.0080 15.27584600 96645

JSON: /api/v1/satellites/62493 · /tle

For live sub-satellite position, see the globe view (requires WebGL).

§ Visibility from observer

Set your observer location to see the next 7 days of passes ≥ 10°. The values pass through the URL so the page stays shareable.

No JS? Fill the form by hand. The geolocation button needs JavaScript.